{"data":{"norad_id":52833,"intl_designator":"2022-062D","name":"STARLINK-4086","alt_names":[],"object_type":"PAYLOAD","status":"ACTIVE","operator":null,"country":"US","launch_date":"2022-06-17","launch_site_code":"AFETR","launch_vehicle":null,"mission":null,"orbit_class":"UNKNOWN","rcs_meters":null,"size_class":null,"mass_kg":null,"dimensions":null,"purposes":["comms"],"wikipedia_slug":null,"has_3d_model":false,"image_url":null,"decayed_at":null,"tle_current":{"epoch":"2026-09-19T15:31:21.751392Z","epoch_age_seconds":140115,"freshness":"FRESH","line1":"1 52833U 22062D   26262.64677953  .00026461  00000+0  10319-2 0  9992","line2":"2 52833  53.1552 235.6835 0003255  46.4765 313.6503 15.25782426235163","mean_motion":15.25782426,"eccentricity":0.0003255,"inclination_deg":53.1552,"raan_deg":235.6835,"arg_perigee_deg":46.4765,"mean_anomaly_deg":313.6503,"bstar":0.0010319,"rev_number":23516,"period_min":94.377807442383,"perigee_km":486.20189325031,"apogee_km":490.67203290027,"semimajor_km":6866.5739630753,"source":"CELESTRAK","updated_at":"2026-09-20T09:00:40.111078Z"}}}